Back to catalog

STARLINK-34275

AliveCommunicationsVLEO
NORAD 64413·PAYLOAD·🇺🇸 United States

Launched Jun 17, 2025 from Vandenberg Space Force Base

Loading…

Next Passes (next 24 hours)

TLE

FreshSource: CelesTrak SupGP

Epoch: Sep 14, 2026, 21:05 UTC

1 64413C 25129B   26257.87895833 -.00019781  00000+0 -68859-3 0  2573
2 64413  69.9991 315.6436 0003449 268.9907   2.6781 15.29565672    15

Track STARLINK-34275 in real time with AllMySat

Download on the App Store